Wind_Speed
8 4 8 11 12 11 8 12 11 11 15 12 11 9 16 17 7 8 10 15 14 13 12 31 38 40 40 35 32 29 31 29 27 25 22 20 18 15 13 9 5 3 2 3
7 12 11 13 16 17 16 14 15 11 9 14 18 25 11 17 9 11 10 9 14 10 15 18 31 35 41 41 36 32 33 32 29 26 23 20 19 19 15 12 8 5 2 4
11 11 16 19 17 17 15 16 11 13 17 8 6 19 19 17 9 20 14 16 13 16 20 18 23 33 36 41 42 36 35 32 29 27 21 21 20 18 17 14 10 8 5 5
14 13 18 18 20 15 12 10 13 16 6 7 5 6 6 7 8 5 8 15 14 18 16 20 20 29 37 39 44 41 36 33 28 27 24 26 28 21 17 17 14 12 6 5
19 15 17 17 15 10 9 8 7 6 6 5 15 1 8 8 8 13 12 10 14 16 19 23 23 35 39 40 43 45 41 36 31 25 24 23 21 15 14 18 17 12 7 7
16 17 16 16 16 12 7 5 8 6 3 6 14 7 8 6 12 10 18 17 14 14 12 21 31 38 35 38 39 43 45 42 38 32 21 24 22 16 20 20 17 11 7 5
12 18 19 17 13 11 4 3 3 4 3 8 8 9 14 8 9 9 13 21 19 18 14 19 22 23 32 36 40 40 40 40 39 38 28 24 24 21 18 18 15 11 10 8
10 12 16 20 15 8 7 8 6 8 4 8 7 7 15 14 20 19 4 10 20 18 11 14 23 27 39 41 39 38 37 36 39 38 36 25 22 21 20 16 13 11 11 10
6 20 16 17 17 13 8 11 8 5 5 3 5 9 17 22 12 22 7 11 10 11 10 10 10 21 27 33 38 39 40 39 41 39 36 33 29 26 23 15 15 16 15 14
11 7 7 14 9 14 6 10 4 1 8 9 8 8 9 13 13 9 10 10 9 10 10 9 8 9 24 35 38 39 41 40 40 39 36 31 29 26 21 17 15 15 15 14
9 5 6 8 4 3 3 13 6 5 5 6 3 6 1 4 4 6 7 9 10 10 9 8 7 13 15 31 33 36 36 34 36 38 33 29 27 24 20 21 20 18 16 16
15 5 4 10 21 16 12 4 8 4 7 5 8 11 8 4 1 16 8 8 8 9 9 9 9 12 13 26 31 34 32 32 36 35 33 30 26 24 22 21 18 17 17 18
12 5 6 10 6 7 4 4 7 3 7 9 4 6 2 6 10 9 10 20 5 7 8 9 9 8 13 23 29 32 33 34 37 35 33 30 27 25 23 21 20 20 20 21
11 4 6 6 14 15 15 18 9 3 3 4 9 10 16 9 8 9 13 9 14 15 17 12 4 9 17 25 28 31 32 33 34 34 33 31 31 30 28 26 23 20 19 20
3 4 10 16 20 19 20 20 13 10 5 6 13 13 15 16 7 13 9 8 10 13 13 13 9 14 16 21 29 33 31 30 29 34 35 37 35 31 27 22 19 18 19 22
4 7 12 19 19 18 22 20 15 12 12 14 8 16 1 2 17 21 16 9 8 11 11 10 10 12 14 27 12 32 34 35 36 33 38 35 31 29 24 19 15 16 18 21
10 9 10 18 16 17 13 14 12 12 8 11 10 14 6 6 5 3 10 9 7 3 6 6 3 4 17 24 34 9 35 39 37 36 30 25 26 22 16 10 11 14 13 14
14 11 8 13 10 15 11 10 16 17 14 13 16 13 10 6 6 9 8 10 3 4 5 7 5 2 11 14 28 24 10 22 32 30 25 22 18 12 7 6 6 8 11 14
11 11 4 9 13 14 19 14 13 11 18 9 13 17 19 12 6 2 8 8 5 4 5 6 13 11 9 6 15 24 9 15 20 20 19 14 9 7 3 2 7 12 17 22
8 9 6 5 5 7 5 14 20 17 19 15 9 7 11 13 5 2 11 5 6 2 5 8 10 9 9 11 15 13 11 19 17 15 15 12 7 3 3 7 11 15 21 25
5 5 9 7 4 6 13 15 8 8 7 4 5 5 7 7 2 1 7 7 10 9 9 11 13 15 13 17 10 13 17 15 16 17 13 9 5 1 4 9 15 20 22 23
3 6 3 4 3 10 6 8 6 4 4 4 6 5 6 7 6 4 4 4 8 7 10 14 13 15 20 15 1 15 16 18 16 13 9 6 2 5 10 13 15 16 18 23
7 10 5 5 5 14 18 12 6 8 7 7 7 7 6 8 7 5 1 1 3 7 10 10 7 12 9 4 12 13 15 16 13 11 8 2 5 9 10 13 13 16 19 19
10 12 7 9 11 7 11 13 15 7 13 9 10 8 7 9 7 7 6 4 2 5 7 10 9 10 8 4 10 17 15 12 10 8 5 5 6 10 12 10 13 13 16 18
9 7 14 15 21 13 18 17 17 17 10 7 7 7 10 8 10 8 2 3 0 5 13 11 10 11 11 9 13 13 12 9 9 7 4 4 6 7 11 10 10 14 14 22
9 17 10 13 17 11 18 16 17 15 11 10 10 10 11 13 10 7 5 3 7 10 11 3 6 7 4 3 14 16 12 8 7 5 6 8 9 9 8 13 14 16 19 21
Wind_Direction
237 176 221 238 246 248 249 236 255 226 231 223 264 245 218 236 161 240 170 173 175 173 169 151 150 151 155 158 156 161 164 168 168 166 158 157 158 157 167 183 214 234 299 342
232 231 224 234 243 239 247 255 265 283 268 217 224 232 240 207 218 185 208 186 178 169 157 155 151 151 158 162 164 164 172 172 175 170 167 170 169 170 181 201 209 234 238 333
231 234 233 233 247 249 239 231 248 249 274 267 225 241 241 206 211 222 197 196 189 179 168 165 158 160 160 165 169 170 178 180 182 174 173 186 187 167 166 184 210 211 225 300
247 252 253 251 239 234 253 257 245 240 248 245 157 262 244 188 196 225 200 203 191 191 173 168 165 165 165 171 173 175 179 182 184 183 187 175 168 171 197 198 204 208 223 272
254 254 254 261 263 246 241 275 271 268 248 293 287 94 257 179 208 228 247 196 199 192 176 176 171 170 173 170 173 177 181 185 189 189 200 193 187 195 199 186 188 192 233 253
266 277 267 271 279 254 243 249 293 290 216 248 246 186 253 229 208 218 229 237 202 193 179 176 173 171 171 172 172 175 181 186 190 192 194 203 197 188 185 181 187 204 231 226
270 264 275 276 286 290 183 156 302 311 282 225 235 251 243 259 238 209 221 234 216 187 171 165 168 169 169 172 178 177 175 180 188 194 192 193 202 209 191 192 203 222 216 230
248 269 241 260 254 232 238 175 182 219 219 256 274 258 257 237 261 266 58 255 202 178 169 154 167 172 179 180 176 174 172 174 187 194 200 192 194 198 209 217 233 231 231 229
307 265 261 255 252 244 243 246 210 184 267 296 249 277 262 253 250 243 145 96 94 97 95 91 113 178 180 177 174 171 173 176 184 191 197 203 208 213 221 226 235 234 234 251
338 304 299 300 308 269 188 235 235 265 201 245 259 267 265 312 205 151 126 122 107 104 95 87 91 97 177 179 171 172 173 175 181 186 194 201 207 214 213 205 218 233 252 259
15 341 323 326 248 303 262 271 212 147 178 196 227 262 118 343 55 358 143 128 122 114 116 110 80 75 95 165 164 166 167 169 175 185 194 202 204 208 217 224 236 250 259 269
7 280 272 266 293 303 305 286 349 215 255 204 193 249 276 348 146 232 166 101 128 140 139 115 103 84 85 138 149 155 159 165 177 188 197 199 201 208 214 222 233 240 254 268
354 332 329 330 331 326 298 49 28 123 12 296 177 257 162 355 6 60 59 129 130 110 117 121 113 114 116 123 134 149 159 171 183 192 195 196 201 204 211 218 229 244 259 272
5 314 328 304 316 322 312 317 345 122 143 294 271 315 311 40 11 7 29 30 64 38 41 20 89 140 133 142 146 152 167 177 187 190 192 196 203 210 217 224 233 243 252 256
76 287 317 324 323 318 306 305 315 301 251 166 274 293 298 348 27 2 38 14 47 55 48 31 31 36 21 162 166 172 182 190 192 196 196 203 207 212 212 210 223 235 252 268
283 262 301 301 310 308 306 304 283 283 293 297 231 269 336 317 6 350 354 358 41 56 34 29 14 22 24 10 233 184 189 195 199 193 197 204 206 205 202 207 226 253 263 270
272 268 275 276 291 306 303 281 301 296 290 302 281 276 285 315 117 248 313 332 5 63 89 351 31 25 40 6 328 230 191 198 199 200 193 181 173 177 188 211 242 258 267 282
264 257 261 268 274 268 259 267 282 286 284 285 292 298 314 278 175 191 190 254 281 287 88 161 207 105 65 3 322 351 342 198 187 182 167 161 159 160 171 196 234 275 289 294
235 251 250 251 256 272 272 268 281 290 286 304 316 315 312 327 8 226 94 74 65 27 42 43 78 73 57 72 316 349 45 138 138 130 123 123 127 135 162 259 293 295 300 304
300 220 248 258 254 255 253 250 250 265 273 280 292 327 319 304 304 351 355 15 314 28 49 46 29 15 1 347 340 337 131 117 107 107 111 114 112 85 347 307 306 308 308 309
295 303 220 234 239 261 253 268 301 261 256 343 10 333 339 352 118 175 343 350 14 24 36 28 20 7 347 345 355 121 116 111 114 115 111 102 90 45 317 313 312 315 313 306
317 313 265 262 224 263 232 239 206 185 305 358 338 310 312 309 317 24 350 25 23 350 16 7 16 15 353 348 119 126 114 121 118 114 100 84 13 320 315 321 320 311 305 300
249 215 235 265 245 308 306 297 218 179 218 200 232 264 286 285 294 306 272 71 294 320 356 350 38 23 17 159 162 131 124 119 118 116 109 71 340 333 337 319 308 309 305 308
245 244 243 257 252 255 278 286 291 253 220 213 210 226 245 271 274 279 249 192 229 296 304 317 8 14 6 85 91 114 111 108 99 87 68 25 356 334 320 305 309 311 320 327
247 271 251 257 263 268 259 253 260 266 258 185 190 208 233 247 265 260 296 319 247 308 306 326 22 5 334 209 131 121 111 110 96 83 42 11 345 345 333 322 334 325 326 324
237 247 244 254 258 251 262 259 261 266 271 224 213 229 241 236 240 213 210 162 246 246 268 100 37 3 280 167 131 121 123 115 86 56 40 40 14 342 358 346 335 323 318 311
Height
741 761 774 764 757 751 751 756 755 737 724 734 738 737 725 713 722 729 726 725 728 732 734 739 746 753 762 771 777 783 790 794 799 801 804 808 811 815 817 818 819 821 821 821
751 760 747 740 740 743 744 753 752 733 722 729 730 725 719 712 716 721 725 726 724 728 733 737 743 749 756 764 773 781 788 792 796 799 802 806 809 813 815 816 818 819 820 821
754 742 728 734 737 739 740 747 746 744 723 721 730 733 722 709 709 705 710 711 716 720 727 732 738 744 751 759 766 775 784 789 793 797 800 804 808 812 813 815 816 817 818 819
739 726 727 729 733 728 745 723 725 727 738 763 724 772 732 715 712 707 711 709 712 713 718 723 731 739 744 751 760 767 777 786 791 795 798 799 802 806 809 812 814 815 816 817
734 731 729 729 723 714 728 714 723 723 734 743 736 762 741 716 722 708 702 708 707 705 709 715 721 728 737 745 752 760 768 780 788 793 796 798 802 805 807 810 812 813 814 815
725 711 714 715 705 704 703 715 725 729 743 771 742 754 742 733 711 704 694 691 696 698 700 706 713 722 732 740 748 755 761 769 779 788 792 796 799 803 806 808 809 810 811 812
731 721 706 703 718 708 708 732 780 782 778 778 733 744 724 708 698 693 694 685 682 686 692 700 710 719 728 735 741 748 755 763 772 780 786 791 796 800 803 804 806 808 809 810
744 748 716 698 711 724 721 736 778 785 789 760 729 749 712 696 683 677 680 676 668 677 683 692 700 709 716 723 733 742 751 759 768 774 780 787 792 795 799 802 804 806 806 807
741 729 701 696 693 701 719 732 724 745 744 764 747 726 699 685 686 676 684 680 684 684 688 693 699 705 714 722 727 735 745 754 762 768 775 781 786 790 794 799 801 802 803 804
748 747 709 699 694 690 702 699 737 745 774 777 747 741 734 706 688 684 685 685 685 686 689 692 695 700 706 714 722 731 739 748 757 765 772 776 780 786 791 795 796 799 800 801
753 753 736 718 714 716 711 718 710 730 735 761 772 753 700 694 687 689 684 687 688 687 690 694 695 698 704 712 721 729 738 747 756 763 768 772 777 782 787 790 793 795 796 797
782 762 758 739 712 709 715 721 717 752 747 741 741 740 696 691 684 683 685 689 687 688 691 694 696 699 705 713 718 727 738 746 754 760 765 769 775 779 783 786 789 791 792 793
794 783 781 753 731 713 725 730 734 743 756 753 759 742 692 696 696 691 692 697 694 693 696 697 700 705 711 716 722 729 738 744 750 756 761 766 771 775 778 781 783 786 787 788
795 796 792 797 777 768 754 741 738 748 771 762 750 742 721 723 716 709 704 701 703 703 711 712 707 709 714 719 724 731 737 742 747 752 756 760 764 768 771 775 779 781 782 782
801 811 797 787 780 770 759 751 745 746 744 759 742 742 729 733 725 724 715 709 704 707 716 721 727 723 722 719 724 726 730 735 740 744 749 753 757 762 767 771 774 776 777 777
798 803 802 796 785 774 765 753 746 746 742 739 740 739 733 728 728 728 724 722 721 715 717 723 732 731 728 729 725 721 724 728 733 737 742 747 753 758 762 766 769 771 771 772
797 797 795 796 791 785 784 756 749 743 741 742 749 731 726 737 736 740 735 727 726 724 724 727 731 734 724 731 734 725 719 724 729 734 740 744 749 755 759 762 764 766 767 768
788 792 792 790 790 800 763 754 749 747 742 741 735 731 729 733 730 737 730 726 722 722 722 725 729 724 724 728 736 729 723 723 726 731 738 744 749 753 756 757 759 761 762 762
773 777 797 795 789 772 759 753 751 749 743 740 740 734 729 729 729 727 724 723 728 729 725 726 724 724 729 734 745 731 725 725 730 733 737 742 745 749 752 754 755 756 757 757
764 769 787 793 792 796 753 744 738 742 752 739 738 740 738 731 743 745 732 728 724 726 725 725 724 728 730 731 731 730 728 733 736 735 736 740 744 748 751 752 753 754 754 753
776 777 781 788 800 768 745 741 736 753 760 740 738 740 741 742 738 734 735 731 727 725 724 725 727 728 729 727 729 727 730 733 734 735 738 741 743 747 749 750 751 751 751 750
780 782 789 782 794 780 732 734 746 745 738 738 739 738 739 738 733 731 731 726 725 727 727 726 726 728 729 725 726 727 729 732 733 734 737 740 743 745 746 747 748 748 748 746
777 766 771 769 766 741 737 740 732 732 732 731 735 734 734 733 730 726 726 725 727 728 727 727 729 729 728 728 725 725 730 731 732 734 737 740 743 744 744 746 747 747 746 743
746 744 752 760 741 741 736 734 729 726 724 723 725 724 728 729 725 725 725 725 725 722 723 724 721 722 723 723 724 726 729 731 734 737 739 739 741 742 744 745 746 745 743 740
742 740 736 736 728 732 722 720 720 719 716 716 717 718 719 721 720 720 719 720 718 718 717 717 717 718 721 725 726 728 730 733 736 738 740 741 741 742 744 744 744 743 742 739
732 731 737 730 719 727 714 713 712 714 711 710 712 712 712 712 713 712 715 713 716 716 717 719 720 723 725 727 729 727 731 735 736 739 740 740 741 742 743 743 742 742 739 734